When you browse on this site, cookies collect data to enhance your experience and personalize the content and advertising you see.
Visit our Privacy Policy to learn more. By continuing to use the site, you agree to this use of cookies and data.
  • Em Portugal
  • Lista de países
  • Para 7 dias
  • Temperatura da água
  • Mapas de satélite
  • Mapa do tempo
  • Widgets de tempo
  • user-avatar
    Iniciar Sessão

    Previsão horária em Bolshaya Krushinovka

    Hoje, 20 Abril, Sábado

    Tempo Temperatura Precipitação Vento Pressão Humidade
    00:00 +7°C° 0 mm 1 m/s 758 mmHg 54%
    01:00 +6°C° 0 mm 2 m/s 757 mmHg 56%
    02:00 +6°C° 0 mm 1 m/s 757 mmHg 57%
    03:00 +5°C° 0 mm 2 m/s 757 mmHg 58%
    04:00 +5°C° 0 mm 2 m/s 757 mmHg 58%
    05:00 +5°C° 0 mm 2 m/s 756 mmHg 59%
    06:00 +6°C° 0 mm 2 m/s 756 mmHg 56%
    07:00 +8°C° 0 mm 2 m/s 756 mmHg 53%
    08:00 +10°C° 0 mm 2 m/s 756 mmHg 50%
    09:00 +12°C° 0 mm 2 m/s 756 mmHg 46%
    10:00 +13°C° 0 mm 3 m/s 755 mmHg 43%
    11:00 +14°C° 0 mm 3 m/s 755 mmHg 39%
    12:00 +16°C° 0 mm 3 m/s 755 mmHg 37%
    13:00 +16°C° 0 mm 3 m/s 755 mmHg 35%
    14:00 +17°C° 0 mm 2 m/s 754 mmHg 32%
    15:00 +16°C° 0 mm 2 m/s 754 mmHg 35%
    16:00 +16°C° 0 mm 2 m/s 754 mmHg 37%
    17:00 +16°C° 0 mm 1 m/s 754 mmHg 39%
    18:00 +14°C° 0.2 mm 1 m/s 754 mmHg 49%
    19:00 +13°C° 0.2 mm 1 m/s 753 mmHg 59%
    20:00 +11°C° 0.2 mm 1 m/s 753 mmHg 70%
    21:00 +10°C° 0.4 mm 1 m/s 753 mmHg 74%
    22:00 +10°C° 0.4 mm 1 m/s 753 mmHg 78%
    23:00 +10°C° 0.4 mm 1 m/s 753 mmHg 83%

    Amanhã, 21 Abril, Domingo

    Tempo Temperatura Precipitação Vento Pressão Humidade
    00:00 +9°C° 0.1 mm 1 m/s 753 mmHg 84%
    01:00 +9°C° 0.1 mm 1 m/s 753 mmHg 85%
    02:00 +8°C° 0.1 mm 1 m/s 753 mmHg 86%
    03:00 +8°C° 0 mm 1 m/s 753 mmHg 87%
    04:00 +7°C° 0 mm 1 m/s 753 mmHg 87%
    05:00 +7°C° 0 mm 1 m/s 752 mmHg 88%
    06:00 +8°C° 0.2 mm 1 m/s 753 mmHg 84%
    07:00 +8°C° 0.2 mm 2 m/s 753 mmHg 80%
    08:00 +10°C° 0.2 mm 2 m/s 753 mmHg 76%
    09:00 +11°C° 0.7 mm 3 m/s 753 mmHg 69%
    10:00 +12°C° 0.7 mm 4 m/s 753 mmHg 63%
    11:00 +14°C° 0.7 mm 5 m/s 753 mmHg 56%
    12:00 +14°C° 0.3 mm 5 m/s 753 mmHg 51%
    13:00 +15°C° 0.3 mm 6 m/s 753 mmHg 46%
    14:00 +16°C° 0.3 mm 6 m/s 753 mmHg 40%
    15:00 +15°C° 0 mm 6 m/s 753 mmHg 42%
    16:00 +15°C° 0 mm 6 m/s 753 mmHg 43%
    17:00 +14°C° 0 mm 6 m/s 753 mmHg 44%
    18:00 +13°C° 0 mm 5 m/s 753 mmHg 48%
    19:00 +10°C° 0 mm 5 m/s 754 mmHg 52%
    20:00 +10°C° 0 mm 4 m/s 754 mmHg 56%
    21:00 +8°C° 0 mm 4 m/s 755 mmHg 57%
    22:00 +8°C° 0 mm 4 m/s 755 mmHg 57%
    23:00 +7°C° 0 mm 4 m/s 756 mmHg 58%

    Depois de amanhã, 22 Abril, Segunda-feira

    Tempo Temperatura Precipitação Vento Pressão Humidade
    00:00 +7°C° 0 mm 3 m/s 756 mmHg 60%
    01:00 +7°C° 0 mm 3 m/s 756 mmHg 62%
    02:00 +5°C° 0 mm 3 m/s 756 mmHg 64%
    03:00 +5°C° 0 mm 3 m/s 756 mmHg 65%
    04:00 +4°C° 0 mm 3 m/s 757 mmHg 67%
    05:00 +5°C° 0 mm 2 m/s 757 mmHg 68%
    06:00 +7°C° 0 mm 3 m/s 757 mmHg 63%
    07:00 +9°C° 0 mm 3 m/s 758 mmHg 58%
    08:00 +11°C° 0 mm 3 m/s 758 mmHg 53%
    09:00 +12°C° 0 mm 3 m/s 758 mmHg 47%
    10:00 +13°C° 0 mm 4 m/s 758 mmHg 42%
    11:00 +14°C° 0 mm 4 m/s 758 mmHg 37%
    12:00 +14°C° 0 mm 4 m/s 758 mmHg 37%
    13:00 +14°C° 0 mm 4 m/s 758 mmHg 36%
    14:00 +15°C° 0 mm 4 m/s 758 mmHg 36%
    15:00 +14°C° 0 mm 3 m/s 758 mmHg 38%
    16:00 +14°C° 0 mm 3 m/s 758 mmHg 39%
    17:00 +14°C° 0 mm 3 m/s 758 mmHg 41%
    18:00 +13°C° 0 mm 2 m/s 758 mmHg 44%
    19:00 +12°C° 0 mm 2 m/s 758 mmHg 48%
    20:00 +10°C° 0 mm 2 m/s 759 mmHg 51%
    21:00 +9°C° 0 mm 2 m/s 759 mmHg 53%
    22:00 +8°C° 0 mm 2 m/s 759 mmHg 54%
    23:00 +9°C° 0 mm 1 m/s 759 mmHg 56%

    23 Abril, Terça-feira

    Tempo Temperatura Precipitação Vento Pressão Humidade
    00:00 +9°C° 0 mm 1 m/s 759 mmHg 56%
    01:00 +9°C° 0 mm 1 m/s 760 mmHg 55%
    02:00 +9°C° 0 mm 1 m/s 760 mmHg 55%
    03:00 +9°C° 0 mm 1 m/s 760 mmHg 56%
    04:00 +9°C° 0 mm 1 m/s 760 mmHg 56%
    05:00 +8°C° 0 mm 2 m/s 760 mmHg 56%
    06:00 +9°C° 0 mm 2 m/s 760 mmHg 54%
    07:00 +10°C° 0 mm 2 m/s 760 mmHg 52%
    08:00 +13°C° 0 mm 2 m/s 760 mmHg 50%
    09:00 +13°C° 0 mm 3 m/s 760 mmHg 45%
    10:00 +14°C° 0 mm 3 m/s 760 mmHg 40%
    11:00 +15°C° 0 mm 4 m/s 760 mmHg 35%
    12:00 +17°C° 0 mm 4 m/s 760 mmHg 34%
    13:00 +17°C° 0 mm 4 m/s 760 mmHg 33%
    14:00 +18°C° 0 mm 4 m/s 760 mmHg 32%
    15:00 +17°C° 0 mm 4 m/s 759 mmHg 33%
    16:00 +17°C° 0 mm 4 m/s 759 mmHg 35%
    17:00 +17°C° 0 mm 4 m/s 759 mmHg 36%
    18:00 +14°C° 0 mm 3 m/s 759 mmHg 42%
    19:00 +13°C° 0 mm 3 m/s 759 mmHg 48%
    20:00 +12°C° 0 mm 2 m/s 759 mmHg 53%
    21:00 +10°C° 0 mm 2 m/s 759 mmHg 56%
    22:00 +10°C° 0 mm 2 m/s 759 mmHg 58%
    23:00 +9°C° 0 mm 2 m/s 759 mmHg 61%

    24 Abril, Quarta-feira

    Tempo Temperatura Precipitação Vento Pressão Humidade
    00:00 +8°C° 0 mm 2 m/s 760 mmHg 63%
    01:00 +8°C° 0 mm 2 m/s 760 mmHg 65%
    02:00 +7°C° 0 mm 2 m/s 760 mmHg 67%
    03:00 +7°C° 0 mm 2 m/s 760 mmHg 68%
    04:00 +7°C° 0 mm 2 m/s 760 mmHg 69%
    05:00 +6°C° 0 mm 2 m/s 760 mmHg 71%
    06:00 +8°C° 0 mm 3 m/s 760 mmHg 65%
    07:00 +10°C° 0 mm 3 m/s 760 mmHg 60%
    08:00 +12°C° 0 mm 3 m/s 760 mmHg 54%
    09:00 +13°C° 0 mm 4 m/s 760 mmHg 50%
    10:00 +15°C° 0 mm 5 m/s 760 mmHg 45%
    11:00 +16°C° 0 mm 5 m/s 759 mmHg 40%
    12:00 +17°C° 0 mm 5 m/s 759 mmHg 40%
    13:00 +17°C° 0 mm 5 m/s 759 mmHg 39%
    14:00 +19°C° 0 mm 5 m/s 758 mmHg 38%
    15:00 +17°C° 0 mm 5 m/s 758 mmHg 39%
    16:00 +17°C° 0 mm 5 m/s 758 mmHg 41%
    17:00 +17°C° 0 mm 5 m/s 757 mmHg 42%
    18:00 +15°C° 0 mm 4 m/s 757 mmHg 48%
    19:00 +13°C° 0 mm 4 m/s 757 mmHg 54%
    20:00 +12°C° 0 mm 3 m/s 758 mmHg 60%
    21:00 +11°C° 0 mm 3 m/s 758 mmHg 61%
    22:00 +10°C° 0 mm 3 m/s 758 mmHg 63%
    23:00 +10°C° 0 mm 3 m/s 758 mmHg 64%

    25 Abril, Quinta-feira

    Tempo Temperatura Precipitação Vento Pressão Humidade
    00:00 +9°C° 0 mm 3 m/s 758 mmHg 66%
    01:00 +9°C° 0 mm 3 m/s 758 mmHg 67%
    02:00 +9°C° 0 mm 3 m/s 758 mmHg 68%
    03:00 +8°C° 0 mm 3 m/s 758 mmHg 69%
    04:00 +8°C° 0 mm 3 m/s 758 mmHg 69%
    05:00 +8°C° 0 mm 3 m/s 758 mmHg 69%
    06:00 +10°C° 0 mm 4 m/s 758 mmHg 64%
    07:00 +11°C° 0 mm 4 m/s 758 mmHg 59%
    08:00 +13°C° 0 mm 5 m/s 758 mmHg 54%
    09:00 +15°C° 0 mm 5 m/s 757 mmHg 49%
    10:00 +16°C° 0 mm 6 m/s 757 mmHg 45%
    11:00 +19°C° 0 mm 6 m/s 757 mmHg 40%
    12:00 +19°C° 0 mm 6 m/s 756 mmHg 39%
    13:00 +20°C° 0 mm 6 m/s 756 mmHg 37%
    14:00 +21°C° 0 mm 6 m/s 756 mmHg 36%
    15:00 +20°C° 0 mm 5 m/s 755 mmHg 37%
    16:00 +20°C° 0 mm 5 m/s 755 mmHg 39%
    17:00 +20°C° 0 mm 4 m/s 755 mmHg 40%
    18:00 +18°C° 0 mm 4 m/s 755 mmHg 46%
    19:00 +16°C° 0 mm 3 m/s 755 mmHg 52%
    20:00 +13°C° 0 mm 3 m/s 754 mmHg 58%
    21:00 +13°C° 0 mm 3 m/s 754 mmHg 60%
    22:00 +12°C° 0 mm 3 m/s 754 mmHg 62%
    23:00 +11°C° 0 mm 3 m/s 754 mmHg 65%
    Mostrar mais